Starlink 5032

operational
NORAD ID: 53895 Int'l Des: 2022-119 Owner: SPXS Country: US Constellation: starlink
LEOCIRCULAR

关于 Starlink 5032

正在加载描述...

实时位置

正在加载3D地球...

即将过境

高度历史

Altitude vs Time

uPlot chart will show altitude changes over time

两行轨道根数

1 53895U 22119K 26034.62817681 -.00000261 00000-0 16765-5 0 9999
2 53895 53.2179 116.9434 0001395 96.8643 263.2508 15.08844001186542
Epoch: Feb 3, 2026 • Age: 13 hours

当前状态

高度 541.6 km
速度 7.60 km/s
星下点 35.36°N, 62.49°E
发射日期 Sep 24, 2022
运行时间 3.3 years
类型 internet

技术详情

分类 Payload
质量 305.00 kg
干质量 290.00 kg
总质量 305.00 kg
长度 0.20 m
直径 2.80 m
跨度 9.00 m
形状 Box + pan
制造商 SPXS
平台类型 Starlink
阶段状态 In Orbit
所有者/国家 SPXS/US

大型星座

Loading constellations...